This is the latest recevied weather packets stored in our database for station/object WY7EM. If no packets are shown the sender has not sent any weather packets the latest 10 day(s).
| Time | Temp. | Humidity | Pressure | Rain* | Wind** | Luminosity | Snow |
|---|---|---|---|---|---|---|---|
| 1777601518 | 19.44° C | 20% | 1010.8 hPa | 0 mm | - | 5 W/m² | - |
| 1777601213 | 19.44° C | 19% | 1010.6 hPa | 0 mm | - | 7 W/m² | - |
| 1777600911 | 19.44° C | 19% | 1010.7 hPa | 0 mm | - | 10 W/m² | - |
| 1777600606 | 20° C | 19% | 1010.8 hPa | 0 mm | - | 12 W/m² | - |
| 1777600303 | 20° C | 19% | 1010.8 hPa | 0 mm | - | 15 W/m² | - |
| 1777599998 | 20° C | 19% | 1010.5 hPa | 0 mm | - | 18 W/m² | - |
| 1777599695 | 20.56° C | 19% | 1010.7 hPa | 0 mm | - | 21 W/m² | - |
| 1777599391 | 20.56° C | 18% | 1010.7 hPa | 0 mm | - | 24 W/m² | - |
| 1777599088 | 20.56° C | 18% | 1010.5 hPa | 0 mm | - | 28 W/m² | - |
| 1777598786 | 20.56° C | 18% | 1010.5 hPa | 0 mm | - | 28 W/m² | - |
| 1777598481 | 20.56° C | 18% | 1010.6 hPa | 0 mm | - | 30 W/m² | - |
| 1777598180 | 20.56° C | 18% | 1010.6 hPa | 0 mm | - | 32 W/m² | - |
| 1777597874 | 21.11° C | 18% | 1010.7 hPa | 0 mm | - | 35 W/m² | - |
| 1777597569 | 21.11° C | 18% | 1010.4 hPa | 0 mm | - | 50 W/m² | - |
| 1777597264 | 21.11° C | 18% | 1010.6 hPa | 0 mm | - | 47 W/m² | - |
| 1777596960 | 21.67° C | 18% | 1010.7 hPa | 0 mm | - | 43 W/m² | - |
| 1777596657 | 22.22° C | 18% | 1010.6 hPa | 0 mm | - | 124 W/m² | - |
| 1777596354 | 22.78° C | 17% | 1010.5 hPa | 0 mm | - | 134 W/m² | - |
| 1777596052 | 22.22° C | 17% | 1010.5 hPa | 0 mm | - | 152 W/m² | - |
| 1777595751 | 22.22° C | 17% | 1010.5 hPa | 0 mm | - | 186 W/m² | - |
| 1777595447 | 22.22° C | 17% | 1010.6 hPa | 0 mm | - | 194 W/m² | - |
| 1777595143 | 22.22° C | 17% | 1010.7 hPa | 0 mm | - | 229 W/m² | - |
| 1777594840 | 22.78° C | 17% | 1010.7 hPa | 0 mm | - | 257 W/m² | - |
| 1777594536 | 22.78° C | 17% | 1010.7 hPa | 0 mm | - | 280 W/m² | - |
| 1777594232 | 22.78° C | 17% | 1010.6 hPa | 0 mm | - | 299 W/m² | - |
* Rain latest hour (hover to see other rain measurements)
** Current wind speed in m/s (hover to see current wind gust speed)